Weather History for Galesburg, IL

Change the Weather History Date:

Friday, May 3, 2013

  Actual Average Record
Temperature  
Mean Temperature 46 °F -  
Max Temperature 56 °F 66 °F 88 °F (1949)
Min Temperature 38 °F 45 °F 24 °F (2005)
Degree Days  
Heating Degree Days 18    
Moisture  
Dew Point 43 °F    
Average Humidity 96    
Maximum Humidity 99    
Minimum Humidity 89    
Precipitation  
Precipitation 1.26 in - - ()
Sea Level Pressure  
Sea Level Pressure 29.96 in    
Wind  
Wind Speed 13 mph (North)    
Max Wind Speed 18 mph    
Max Gust Speed 24 mph    
Visibility 7 miles    
Events Rain , Thunderstorm    
Averages and records for this station are not official NWS values.
T = Trace of Precipitation, MM = Missing Value Source: NWS Daily Summary

Daily Weather History Graph

Daily Weather History Graph

Search for Another Location

Airport:

Trip Planner

Search our weather history database for the weather conditions in past years. The results will help you decide how hot, cold, wet, or windy it might be!

Date:

Astronomy

May. 03, 2013 Rise Set
Actual Time 5:57 AM CDT 8:00 PM CDT
Civil Twilight 5:27 AM CDT 8:30 PM CDT
Nautical Twilight 4:50 AM CDT 9:07 PM CDT
Astronomical Twilight 4:10 AM CDT 9:48 PM CDT
Moon 2:24 AM CDT (5/3) 1:52 PM CDT (5/3)
Length of Visible Light 15h 03m
Length of Day
14h 03m
Last Quarter, 37% of the Moon is Illuminated
May 3
Last Quarter
May 9
New
May 17
First Quarter
May 24
Full
May 31
Last Quarter

Hourly Weather History & Observations

Time (CDT) Temp. Windchill Dew Point Humidity Pressure Visibility Wind Dir Wind Speed Gust Speed Precip Events Conditions
12:15 AM 41.2 °F 33.0 °F 39.9 °F 95% 30.14 in 7.0 mi North 16.1 mph 19.6 mph 0.01 in Rain Light Rain
12:35 AM 41.2 °F 33.4 °F 39.7 °F 95% 30.13 in 10.0 mi North 15.0 mph 19.6 mph 0.01 in Rain Light Rain
12:55 AM 41.0 °F 33.9 °F 39.6 °F 95% 30.13 in 10.0 mi North 12.7 mph - 0.02 in Rain Light Rain
1:15 AM 41.0 °F 33.5 °F 39.4 °F 94% 30.12 in 10.0 mi North 13.8 mph 20.7 mph N/A Rain Light Rain
1:35 AM 40.8 °F 32.9 °F 39.4 °F 95% 30.11 in 7.0 mi North 15.0 mph - 0.01 in Rain Rain
1:55 AM 40.5 °F 32.1 °F 39.2 °F 95% 30.10 in 7.0 mi North 16.1 mph - 0.03 in Rain Rain
2:35 AM 40.3 °F 32.2 °F 39.2 °F 96% 30.08 in 10.0 mi North 15.0 mph - 0.02 in Rain Light Rain
2:55 AM 40.3 °F 31.9 °F 39.2 °F 96% 30.08 in 10.0 mi North 16.1 mph - 0.02 in Rain Light Rain
3:15 AM 40.1 °F 32.4 °F 39.2 °F 97% 30.07 in 10.0 mi North 13.8 mph - N/A Rain Light Rain
3:35 AM 40.1 °F 33.6 °F 38.8 °F 95% 30.08 in 10.0 mi North 10.4 mph - N/A Rain Light Rain
3:55 AM 40.1 °F 31.6 °F 39.0 °F 96% 30.07 in 10.0 mi North 16.1 mph 21.9 mph 0.01 in Rain Rain
4:15 AM 39.7 °F 31.9 °F 38.5 °F 95% 30.07 in 10.0 mi North 13.8 mph - N/A   Light Drizzle
4:35 AM 39.6 °F 30.6 °F 38.3 °F 95% 30.05 in 10.0 mi North 17.3 mph 20.7 mph N/A   Overcast
4:55 AM 39.2 °F 30.2 °F 37.9 °F 95% 30.04 in 10.0 mi North 17.3 mph - N/A Rain Light Rain
5:15 AM 39.0 °F 30.6 °F 37.9 °F 96% 30.04 in 7.0 mi North 15.0 mph - 0.01 in Rain Light Rain
5:35 AM 38.8 °F 30.4 °F 37.9 °F 97% 30.04 in 5.0 mi North 15.0 mph 19.6 mph 0.02 in Rain Rain
5:55 AM 38.7 °F 31.4 °F 37.8 °F 97% 30.04 in 5.0 mi North 11.5 mph - 0.04 in Rain Light Rain
6:15 AM 39.2 °F 30.8 °F 38.3 °F 97% 30.04 in 5.0 mi North 15.0 mph - 0.01 in Rain Rain
6:35 AM 39.2 °F 31.2 °F 38.3 °F 97% 30.03 in 5.0 mi North 13.8 mph - 0.03 in Rain Rain
6:55 AM 39.2 °F 30.2 °F 38.3 °F 97% 30.02 in 10.0 mi North 17.3 mph 23.0 mph 0.04 in Rain Light Rain
7:15 AM 39.4 °F 30.7 °F 38.3 °F 96% 30.00 in 10.0 mi North 16.1 mph 21.9 mph 0.01 in Rain Light Rain
7:35 AM 39.4 °F 30.7 °F 38.3 °F 96% 30.01 in 7.0 mi North 16.1 mph - 0.02 in Rain Rain
7:55 AM 39.4 °F 32.7 °F 38.3 °F 96% 30.03 in 5.0 mi NNW 10.4 mph - 0.04 in Rain Rain
8:15 AM 39.4 °F 31.8 °F 38.5 °F 97% 30.01 in 5.0 mi North 12.7 mph 16.1 mph 0.03 in Rain Rain
8:35 AM 39.2 °F 30.5 °F 38.3 °F 97% 29.99 in 7.0 mi North 16.1 mph - 0.06 in Rain Rain
8:55 AM 39.4 °F 31.1 °F 38.5 °F 97% 29.98 in 10.0 mi North 15.0 mph - 0.07 in Rain Rain
9:15 AM 39.2 °F 33.6 °F 38.3 °F 97% 30.02 in 1.0 mi North 8.1 mph - 0.11 in Rain Light Rain
9:35 AM 39.6 °F 31.7 °F 38.7 °F 97% 30.00 in 10.0 mi North 13.8 mph - 0.12 in Rain Rain
9:55 AM 39.6 °F 32.5 °F 38.7 °F 97% 30.00 in 10.0 mi North 11.5 mph - 0.14 in Rain Rain
10:15 AM 39.4 °F 31.8 °F 38.5 °F 97% 30.00 in 5.0 mi North 12.7 mph - 0.03 in Rain Rain
10:35 AM 39.4 °F 31.4 °F 38.5 °F 97% 29.99 in 5.0 mi North 13.8 mph - 0.06 in Rain Rain
10:55 AM 39.7 °F 31.9 °F 38.8 °F 97% 29.99 in 10.0 mi North 13.8 mph - 0.08 in Rain Rain
11:15 AM 40.1 °F 33.2 °F 39.2 °F 97% 29.99 in 5.0 mi North 11.5 mph - 0.04 in Rain Rain
11:35 AM 40.3 °F 33.0 °F 39.4 °F 97% 29.97 in 10.0 mi North 12.7 mph - 0.06 in Rain Rain
11:55 AM 40.6 °F 34.8 °F 39.7 °F 97% 29.98 in 10.0 mi North 9.2 mph - 0.08 in Rain Light Rain
12:15 PM 40.8 °F 35.0 °F 39.9 °F 97% 29.98 in 7.0 mi NW 9.2 mph - 0.02 in Rain Rain
12:35 PM 41.0 °F 35.2 °F 40.1 °F 97% 29.98 in 4.0 mi NW 9.2 mph - 0.08 in Rain Heavy Rain
12:55 PM 41.0 °F 34.3 °F 40.1 °F 97% 29.96 in 4.0 mi North 11.5 mph - 0.17 in Rain Rain
1:15 PM 41.5 °F 34.2 °F 40.6 °F 97% 29.94 in 7.0 mi North 13.8 mph - 0.03 in Rain Light Rain
1:35 PM 41.9 °F 35.4 °F 41.0 °F 97% 29.95 in 10.0 mi North 11.5 mph - 0.05 in Rain Rain
1:55 PM 42.6 °F 36.3 °F 41.5 °F 96% 29.94 in 10.0 mi North 11.5 mph - 0.07 in Rain Rain
2:15 PM 43.0 °F 36.4 °F 42.1 °F 97% 29.94 in 7.0 mi North 12.7 mph - 0.03 in Rain Heavy Rain
2:35 PM 44.1 °F 38.6 °F 43.2 °F 97% 29.92 in 10.0 mi North 10.4 mph - 0.05 in Rain Light Rain
2:55 PM 44.4 °F 38.6 °F 43.5 °F 97% 29.91 in 10.0 mi North 11.5 mph - 0.06 in Rain Rain
3:15 PM 45.1 °F 39.1 °F 44.1 °F 96% 29.90 in 7.0 mi North 12.7 mph - 0.02 in Rain Heavy Rain
3:35 PM 45.5 °F 41.3 °F 44.2 °F 95% 29.91 in 4.0 mi North 8.1 mph - 0.09 in Rain Heavy Rain
3:55 PM 45.7 °F 39.5 °F 44.8 °F 97% 29.89 in 5.0 mi North 13.8 mph - 0.15 in Rain Heavy Rain
4:15 PM 46.4 °F 41.5 °F 45.3 °F 96% 29.89 in 10.0 mi North 10.4 mph - 0.01 in Rain Rain
4:35 PM 46.6 °F - 45.7 °F 97% 29.88 in 10.0 mi North 12.7 mph - 0.03 in Rain Light Rain
4:55 PM 46.8 °F - 45.9 °F 97% 29.87 in 10.0 mi North 12.7 mph - 0.04 in Rain Light Rain
5:15 PM 47.3 °F - 46.4 °F 97% 29.88 in 10.0 mi North 8.1 mph - 0.01 in Rain Rain
5:35 PM 47.5 °F - 46.6 °F 97% 29.86 in 7.0 mi North 12.7 mph - 0.03 in Rain Rain
5:55 PM 47.8 °F - 47.3 °F 98% 29.86 in 10.0 mi North 11.5 mph - 0.05 in Rain Light Rain
6:15 PM 48.2 °F - 47.5 °F 97% 29.86 in 10.0 mi North 6.9 mph - N/A Rain Light Rain
6:35 PM 48.6 °F - 47.8 °F 97% 29.85 in 7.0 mi North 10.4 mph - 0.02 in Rain Light Rain
6:55 PM 48.7 °F - 48.2 °F 98% 29.85 in 10.0 mi North 9.2 mph - 0.02 in Rain Light Rain
7:15 PM 49.1 °F - 48.4 °F 97% 29.84 in 7.0 mi North 9.2 mph - N/A   Overcast
7:35 PM 49.6 °F - 49.1 °F 98% 29.83 in 3.0 mi North 11.5 mph - N/A   Overcast
7:55 PM 50.0 °F - 49.5 °F 98% 29.84 in 1.5 mi North 11.5 mph - N/A   Overcast
8:15 PM 50.4 °F - 50.0 °F 99% 29.85 in 2.0 mi North 8.1 mph - N/A Rain Light Rain
8:35 PM 50.9 °F - 50.4 °F 98% 29.85 in 1.8 mi North 8.1 mph - N/A Rain Rain
8:55 PM 51.8 °F - 51.1 °F 97% 29.85 in 1.8 mi North 8.1 mph - 0.03 in Rain Rain
9:15 PM 51.8 °F - 51.1 °F 97% 29.85 in 1.8 mi NNW 10.4 mph - 0.01 in Rain Light Rain
9:35 PM 52.2 °F - 51.8 °F 99% 29.84 in 1.8 mi NNW 9.2 mph - 0.01 in Rain Light Rain
9:55 PM 51.3 °F - 50.7 °F 98% 29.87 in 2.0 mi NW 5.8 mph - 0.09 in Rain , Thunderstorm Light Thunderstorms and Rain
10:15 PM 54.0 °F - 53.6 °F 99% 29.84 in 7.0 mi NNE 10.4 mph - 0.01 in   Light Drizzle
10:35 PM 55.0 °F - 54.1 °F 97% 29.82 in 5.0 mi NE 10.4 mph - 0.01 in   Overcast
10:55 PM 55.4 °F - 54.0 °F 95% 29.82 in 5.0 mi NE 10.4 mph - 0.01 in   Light Drizzle
11:15 PM 55.4 °F - 53.6 °F 94% 29.81 in 7.0 mi ENE 12.7 mph - N/A   Mostly Cloudy
11:35 PM 55.4 °F - 53.4 °F 93% 29.82 in 7.0 mi ENE 18.4 mph 24.2 mph N/A   Mostly Cloudy
11:55 PM 56.3 °F - 53.2 °F 89% 29.84 in 10.0 mi East 17.3 mph 24.2 mph N/A   Overcast